Location: Normandy Village
(37.8755°N, 122.2655°W)
Time: 23:34:41
(UTC+00:00)

Meteor 1-31 Rocket - Pass Details

Date: 22 September 2019
Orbit: 521 x 548 km, 97.6° (Epoch: 21 October)

Event Time Altitude Azimuth Distance (km) Brightness Sun altitude
Rises 12:32:07 0° 14° (NNE) 2,706 6.8 -17.3°
Reaches altitude 10° 12:34:16 10° 18° (NNE) 1,805 5.9 -16.9°
Maximum altitude 12:38:09 67° 101° (E) 583 3.1 -16.2°
Drops below altitude 10° 12:41:57 10° 184° (S) 1,775 5.2 -15.5°
Sets 12:44:03 0° 187° (S) 2,655 6.1 -15.1°
